SCP
0 0 0 0 0 0 0 0 0 0 0 0 0 0 0 0 0 0 0 0 0 0
0 0 0 0 0 0 0 0 0 0 0 0 0 0 0 0 0 0 0 0 0 0
0 0 0 0 0 0 0 0 0 0 0 0 0 0 0 0 0 0 0 0 0 0
0 0 0 0 0 0 0 0 0 0 0 0 0 0 0 0 0 0 0 0 0 0
0 0 0 0 0 0 0 0 0 0 0 0 0 0 0 0 0 0 0 0 0 0
0 0 0 0 0 0 0 0 0 0 0 0 0 0 0 0 0 0 0 0 0 0
0 0 0 0 0 0 0 0 0 0 0 0 0 0 0 0 0 0 0 0 0 0
0 0 0 0 0 0 0 0 0 0 0 0 0 0 0 0 0 0 0 0 0 0
0 0 0 0 0 0 0 0 0 0 0 0 0 0 0 0 0 0 0 0 0 0
0 0 0 0 0 0 0 0 0 0 0 0 0 0 0 0 0 0 0 0 0 0
0 0 0 0 0 0 0 0 0 0 0 0 0 0 0 0 0 0 0 0 0 0
0 0 0 0 0 0 0 0 0 0 0 0 0 0 0 0 0 0 0 0 0 0
0 0 0 0 0 0 0 0 0 0 0 0 0 0 0 0 0 0 0 0 0 0
0 0 0 0 0 0 0 0 0 0 0 0 0 0 0 0 0 0 0 0 0 0
Wind_Speed_500mb
40 31 33 37 46 46 68 41 47 47 49 45 57 70 69 73 55 59 60 65 64 79
39 40 34 39 48 29 38 39 41 34 47 57 56 53 44 56 59 54 59 67 81 66
38 36 40 48 56 38 33 39 55 36 36 43 49 42 41 44 52 52 52 46 46 36
34 37 40 39 49 43 38 49 40 34 38 46 45 45 37 35 44 39 30 21 19 29
28 33 42 44 38 46 56 51 43 45 41 39 36 33 29 31 29 29 23 27 33 34
24 26 33 38 43 47 54 54 53 39 35 36 28 28 26 21 21 21 22 19 20 14
19 28 34 41 44 35 54 52 44 43 36 26 25 26 23 25 29 29 32 31 30 29
13 22 34 41 44 52 47 48 48 49 45 43 46 46 47 47 44 40 37 32 28 25
19 26 39 48 50 49 52 55 59 63 70 67 63 53 45 41 40 36 35 35 35 34
31 41 54 63 63 75 76 75 75 74 64 60 54 44 40 35 36 36 36 35 33 34
56 62 73 80 79 82 72 68 69 65 60 54 49 39 37 33 35 37 37 35 32 29
64 70 72 76 70 68 63 60 58 57 54 53 52 40 36 29 31 31 30 28 26 22
62 65 64 65 63 61 53 54 52 52 47 45 46 38 33 27 25 24 24 22 18 15
49 51 53 53 53 49 48 46 46 45 42 38 33 29 22 21 18 17 14 13 9 7
Wind_Direction_500mb
235 245 240 241 236 229 237 290 241 224 227 226 218 224 226 228 236 243 247 252 249 257
236 241 244 243 233 256 221 265 262 232 223 211 221 214 214 243 239 248 240 250 258 259
238 243 239 240 239 237 232 252 252 235 223 221 225 225 229 236 234 243 244 251 244 250
240 232 239 242 233 227 246 248 244 234 217 215 213 216 216 220 222 227 215 216 248 248
256 245 239 240 228 208 237 242 233 208 198 205 197 174 179 186 180 191 203 211 235 253
244 236 231 227 220 202 215 226 227 197 189 166 162 172 182 193 205 201 205 205 206 190
229 224 215 204 197 194 209 202 173 162 156 154 152 151 157 147 138 138 130 129 123 119
203 202 191 186 176 177 178 163 154 147 140 139 133 124 124 122 121 126 129 127 125 120
151 165 155 153 151 150 140 140 137 132 129 126 121 121 122 123 125 123 121 120 115 108
126 135 134 128 131 126 126 125 121 118 116 113 110 113 113 115 119 120 116 112 111 115
116 118 116 117 117 116 116 113 110 111 109 109 103 107 111 120 121 121 118 115 112 110
93 97 103 104 102 101 107 107 106 109 115 115 110 108 106 110 110 109 110 105 101 97
79 83 87 90 97 100 103 104 107 108 108 106 103 104 104 103 101 105 106 106 106 108
85 89 94 95 95 98 101 104 102 103 102 102 102 103 101 103 104 104 108 112 132 143
Wind_Speed_850mb
40 31 33 37 46 46 68 41 47 47 49 45 57 70 69 73 55 59 60 65 64 79
39 40 34 39 48 29 38 39 41 34 47 57 56 53 44 56 59 54 59 67 81 66
38 36 40 48 56 38 33 39 55 36 36 43 49 42 41 44 52 52 52 46 46 36
34 37 40 39 49 43 38 49 40 34 38 46 45 45 37 35 44 39 30 21 19 29
28 33 42 44 38 46 56 51 43 45 41 39 36 33 29 31 29 29 23 27 33 34
24 26 33 38 43 47 54 54 53 39 35 36 28 28 26 21 21 21 22 19 20 14
19 28 34 41 44 35 54 52 44 43 36 26 25 26 23 25 29 29 32 31 30 29
13 22 34 41 44 52 47 48 48 49 45 43 46 46 47 47 44 40 37 32 28 25
19 26 39 48 50 49 52 55 59 63 70 67 63 53 45 41 40 36 35 35 35 34
31 41 54 63 63 75 76 75 75 74 64 60 54 44 40 35 36 36 36 35 33 34
56 62 73 80 79 82 72 68 69 65 60 54 49 39 37 33 35 37 37 35 32 29
64 70 72 76 70 68 63 60 58 57 54 53 52 40 36 29 31 31 30 28 26 22
62 65 64 65 63 61 53 54 52 52 47 45 46 38 33 27 25 24 24 22 18 15
49 51 53 53 53 49 48 46 46 45 42 38 33 29 22 21 18 17 14 13 9 7
Wind_Direction_850mb
235 245 240 241 236 229 237 290 241 224 227 226 218 224 226 228 236 243 247 252 249 257
236 241 244 243 233 256 221 265 262 232 223 211 221 214 214 243 239 248 240 250 258 259
238 243 239 240 239 237 232 252 252 235 223 221 225 225 229 236 234 243 244 251 244 250
240 232 239 242 233 227 246 248 244 234 217 215 213 216 216 220 222 227 215 216 248 248
256 245 239 240 228 208 237 242 233 208 198 205 197 174 179 186 180 191 203 211 235 253
244 236 231 227 220 202 215 226 227 197 189 166 162 172 182 193 205 201 205 205 206 190
229 224 215 204 197 194 209 202 173 162 156 154 152 151 157 147 138 138 130 129 123 119
203 202 191 186 176 177 178 163 154 147 140 139 133 124 124 122 121 126 129 127 125 120
151 165 155 153 151 150 140 140 137 132 129 126 121 121 122 123 125 123 121 120 115 108
126 135 134 128 131 126 126 125 121 118 116 113 110 113 113 115 119 120 116 112 111 115
116 118 116 117 117 116 116 113 110 111 109 109 103 107 111 120 121 121 118 115 112 110
93 97 103 104 102 101 107 107 106 109 115 115 110 108 106 110 110 109 110 105 101 97
79 83 87 90 97 100 103 104 107 108 108 106 103 104 104 103 101 105 106 106 106 108
85 89 94 95 95 98 101 104 102 103 102 102 102 103 101 103 104 104 108 112 132 143